Year,Month,Day,Hour,Minute,Value (Times are PST for temperature in C)
2010,08,16,00,00,19.10
2010,08,16,00,01,19.10
2010,08,16,00,02,19.00
2010,08,16,00,03,19.00
2010,08,16,00,04,19.00
2010,08,16,00,05,19.00
2010,08,16,00,06,19.00
2010,08,16,00,07,19.00
2010,08,16,00,08,19.00
2010,08,16,00,09,19.00
2010,08,16,00,10,19.00
2010,08,16,00,11,19.00
2010,08,16,00,12,18.90
2010,08,16,00,13,18.90
2010,08,16,00,14,18.90
2010,08,16,00,15,18.90
2010,08,16,00,16,18.90
2010,08,16,00,17,18.90
2010,08,16,00,18,18.90
2010,08,16,00,19,18.80
2010,08,16,00,20,18.80
2010,08,16,00,21,18.80
2010,08,16,00,22,18.80
2010,08,16,00,23,18.80
2010,08,16,00,24,18.70
2010,08,16,00,25,18.70
2010,08,16,00,26,18.70
2010,08,16,00,27,18.70
2010,08,16,00,28,18.70
2010,08,16,00,29,18.70
2010,08,16,00,30,18.60
2010,08,16,00,31,18.60
2010,08,16,00,32,18.60
2010,08,16,00,33,18.60
2010,08,16,00,34,18.60
2010,08,16,00,35,18.50
2010,08,16,00,36,18.50
2010,08,16,00,37,18.50
2010,08,16,00,38,18.50
2010,08,16,00,39,18.40
2010,08,16,00,40,18.40
2010,08,16,00,41,18.40
2010,08,16,00,42,18.40
2010,08,16,00,43,18.40
2010,08,16,00,44,18.30
2010,08,16,00,45,18.30
2010,08,16,00,46,18.30
2010,08,16,00,47,18.30
2010,08,16,00,48,18.30
2010,08,16,00,49,18.30
2010,08,16,00,50,18.30
2010,08,16,00,51,18.30
2010,08,16,00,52,18.30
2010,08,16,00,53,18.30
2010,08,16,00,54,18.30
2010,08,16,00,55,18.30
2010,08,16,00,56,18.30
2010,08,16,00,57,18.20
2010,08,16,00,58,18.20
2010,08,16,00,59,18.20
2010,08,16,01,00,18.20
2010,08,16,01,01,18.20
2010,08,16,01,02,18.20
2010,08,16,01,03,18.20
2010,08,16,01,04,18.20
2010,08,16,01,05,18.20
2010,08,16,01,06,18.10
2010,08,16,01,07,18.10
2010,08,16,01,08,18.10
2010,08,16,01,09,18.10
2010,08,16,01,10,18.10
2010,08,16,01,11,18.00
2010,08,16,01,12,18.00
2010,08,16,01,13,18.00
2010,08,16,01,14,18.00
2010,08,16,01,15,17.90
2010,08,16,01,16,17.90
2010,08,16,01,17,17.90
2010,08,16,01,18,18.00
2010,08,16,01,19,18.00
2010,08,16,01,20,18.00
2010,08,16,01,21,18.00
2010,08,16,01,22,18.00
2010,08,16,01,23,18.00
2010,08,16,01,24,18.10
2010,08,16,01,25,18.10
2010,08,16,01,26,18.10
2010,08,16,01,27,18.00
2010,08,16,01,28,18.00
2010,08,16,01,29,18.00
2010,08,16,01,30,18.00
2010,08,16,01,31,17.90
2010,08,16,01,32,17.90
2010,08,16,01,33,17.90
2010,08,16,01,34,17.90
2010,08,16,01,35,17.90
2010,08,16,01,36,17.90
2010,08,16,01,37,17.80
2010,08,16,01,38,17.80
2010,08,16,01,39,17.80
2010,08,16,01,40,17.80
2010,08,16,01,41,17.80
2010,08,16,01,42,17.70
2010,08,16,01,43,17.70
2010,08,16,01,44,17.70
2010,08,16,01,45,17.70
2010,08,16,01,46,17.60
2010,08,16,01,47,17.60
2010,08,16,01,48,17.60
2010,08,16,01,49,17.50
2010,08,16,01,50,17.50
2010,08,16,01,51,17.40
2010,08,16,01,52,17.40
2010,08,16,01,53,17.40
2010,08,16,01,54,17.40
2010,08,16,01,55,17.40
2010,08,16,01,56,17.30
2010,08,16,01,57,17.30
2010,08,16,01,58,17.30
2010,08,16,01,59,17.30
2010,08,16,02,00,17.20
2010,08,16,02,01,17.20
2010,08,16,02,02,17.20
2010,08,16,02,03,17.20
2010,08,16,02,04,17.20
2010,08,16,02,05,17.10
2010,08,16,02,06,17.10
2010,08,16,02,07,17.10
2010,08,16,02,08,17.10
2010,08,16,02,09,17.10
2010,08,16,02,10,17.00
2010,08,16,02,11,17.00
2010,08,16,02,12,17.00
2010,08,16,02,13,17.00
2010,08,16,02,14,16.90
2010,08,16,02,15,16.90
2010,08,16,02,16,16.90
2010,08,16,02,17,16.90
2010,08,16,02,18,16.90
2010,08,16,02,19,16.90
2010,08,16,02,20,16.80
2010,08,16,02,21,16.80
2010,08,16,02,22,16.80
2010,08,16,02,23,16.80
2010,08,16,02,24,16.80
2010,08,16,02,25,16.80
2010,08,16,02,26,16.70
2010,08,16,02,27,16.70
2010,08,16,02,28,16.70
2010,08,16,02,29,16.70
2010,08,16,02,30,16.70
2010,08,16,02,31,16.60
2010,08,16,02,32,16.60
2010,08,16,02,33,16.60
2010,08,16,02,34,16.60
2010,08,16,02,35,16.60
2010,08,16,02,36,16.70
2010,08,16,02,37,16.70
2010,08,16,02,38,16.70
2010,08,16,02,39,16.60
2010,08,16,02,40,16.60
2010,08,16,02,41,16.60
2010,08,16,02,42,16.60
2010,08,16,02,43,16.60
2010,08,16,02,44,16.60
2010,08,16,02,45,16.60
2010,08,16,02,46,16.60
2010,08,16,02,47,16.60
2010,08,16,02,48,16.50
2010,08,16,02,49,16.50
2010,08,16,02,50,16.50
2010,08,16,02,51,16.50
2010,08,16,02,52,16.50
2010,08,16,02,53,16.50
2010,08,16,02,54,16.40
2010,08,16,02,55,16.40
2010,08,16,02,56,16.40
2010,08,16,02,57,16.40
2010,08,16,02,58,16.40
2010,08,16,02,59,16.50
2010,08,16,03,00,16.50
2010,08,16,03,01,16.50
2010,08,16,03,02,16.50
2010,08,16,03,03,16.50
2010,08,16,03,04,16.50
2010,08,16,03,05,16.50
2010,08,16,03,06,16.50
2010,08,16,03,07,16.40
2010,08,16,03,08,16.40
2010,08,16,03,09,16.40
2010,08,16,03,10,16.40
2010,08,16,03,11,16.40
2010,08,16,03,12,16.40
2010,08,16,03,13,16.30
2010,08,16,03,14,16.30
2010,08,16,03,15,16.30
2010,08,16,03,16,16.30
2010,08,16,03,17,16.30
2010,08,16,03,18,16.30
2010,08,16,03,19,16.30
2010,08,16,03,20,16.30
2010,08,16,03,21,16.30
2010,08,16,03,22,16.30
2010,08,16,03,23,16.20
2010,08,16,03,24,16.20
2010,08,16,03,25,16.20
2010,08,16,03,26,16.20
2010,08,16,03,27,16.20
2010,08,16,03,28,16.20
2010,08,16,03,29,16.20
2010,08,16,03,30,16.20
2010,08,16,03,31,16.20
2010,08,16,03,32,16.20
2010,08,16,03,33,16.20
2010,08,16,03,34,16.20
2010,08,16,03,35,16.20
2010,08,16,03,36,16.20
2010,08,16,03,37,16.20
2010,08,16,03,38,16.20
2010,08,16,03,39,16.20
2010,08,16,03,40,16.20
2010,08,16,03,41,16.20
2010,08,16,03,42,16.10
2010,08,16,03,43,16.10
2010,08,16,03,44,16.10
2010,08,16,03,45,16.10
2010,08,16,03,46,16.10
2010,08,16,03,47,16.10
2010,08,16,03,48,16.10
2010,08,16,03,49,16.10
2010,08,16,03,50,16.10
2010,08,16,03,51,16.10
2010,08,16,03,52,16.00
2010,08,16,03,53,16.00
2010,08,16,03,54,16.10
2010,08,16,03,55,16.10
2010,08,16,03,56,16.10
2010,08,16,03,57,16.10
2010,08,16,03,58,16.10
2010,08,16,03,59,16.10
2010,08,16,04,00,16.20
2010,08,16,04,01,16.20
2010,08,16,04,02,16.20
2010,08,16,04,03,16.20
2010,08,16,04,04,16.20
2010,08,16,04,05,16.20
2010,08,16,04,06,16.10
2010,08,16,04,07,16.10
2010,08,16,04,08,16.10
2010,08,16,04,09,16.10
2010,08,16,04,10,16.10
2010,08,16,04,11,16.00
2010,08,16,04,12,16.00
2010,08,16,04,13,16.00
2010,08,16,04,14,16.00
2010,08,16,04,15,16.00
2010,08,16,04,16,16.00
2010,08,16,04,17,16.00
2010,08,16,04,18,16.00
2010,08,16,04,19,16.10
2010,08,16,04,20,16.00
2010,08,16,04,21,16.00
2010,08,16,04,22,16.00
2010,08,16,04,23,16.00
2010,08,16,04,24,15.90
2010,08,16,04,25,15.90
2010,08,16,04,26,15.90
2010,08,16,04,27,15.90
2010,08,16,04,28,15.80
2010,08,16,04,29,15.80
2010,08,16,04,30,15.80
2010,08,16,04,31,15.80
2010,08,16,04,32,15.80
2010,08,16,04,33,15.80
2010,08,16,04,34,15.70
2010,08,16,04,35,15.70
2010,08,16,04,36,15.70
2010,08,16,04,37,15.60
2010,08,16,04,38,15.60
2010,08,16,04,39,15.60
2010,08,16,04,40,15.60
2010,08,16,04,41,15.50
2010,08,16,04,42,15.50
2010,08,16,04,43,15.50
2010,08,16,04,44,15.40
2010,08,16,04,45,15.40
2010,08,16,04,46,15.40
2010,08,16,04,47,15.40
2010,08,16,04,48,15.40
2010,08,16,04,49,15.40
2010,08,16,04,50,15.30
2010,08,16,04,51,15.30
2010,08,16,04,52,15.30
2010,08,16,04,53,15.30
2010,08,16,04,54,15.30
2010,08,16,04,55,15.30
2010,08,16,04,56,15.30
2010,08,16,04,57,15.30
2010,08,16,04,58,15.30
2010,08,16,04,59,15.40
2010,08,16,05,00,15.40
2010,08,16,05,01,15.40
2010,08,16,05,02,15.30
2010,08,16,05,03,15.30
2010,08,16,05,04,15.30
2010,08,16,05,05,15.30
2010,08,16,05,06,15.30
2010,08,16,05,07,15.30
2010,08,16,05,08,15.30
2010,08,16,05,09,15.30
2010,08,16,05,10,15.30
2010,08,16,05,11,15.20
2010,08,16,05,12,15.20
2010,08,16,05,13,15.20
2010,08,16,05,14,15.20
2010,08,16,05,15,15.20
2010,08,16,05,16,15.20
2010,08,16,05,17,15.10
2010,08,16,05,18,15.10
2010,08,16,05,19,15.10
2010,08,16,05,20,15.10
2010,08,16,05,21,15.00
2010,08,16,05,22,15.00
2010,08,16,05,23,15.00
2010,08,16,05,24,15.10
2010,08,16,05,25,15.10
2010,08,16,05,26,15.00
2010,08,16,05,27,15.00
2010,08,16,05,28,15.00
2010,08,16,05,29,15.00
2010,08,16,05,30,15.00
2010,08,16,05,31,15.00
2010,08,16,05,32,15.00
2010,08,16,05,33,15.00
2010,08,16,05,34,15.00
2010,08,16,05,35,15.00
2010,08,16,05,36,15.00
2010,08,16,05,37,15.00
2010,08,16,05,38,15.00
2010,08,16,05,39,15.00
2010,08,16,05,40,15.00
2010,08,16,05,41,15.00
2010,08,16,05,42,15.00
2010,08,16,05,43,15.00
2010,08,16,05,44,15.00
2010,08,16,05,45,15.00
2010,08,16,05,46,15.00
2010,08,16,05,47,15.00
2010,08,16,05,48,15.00
2010,08,16,05,49,15.00
2010,08,16,05,50,15.00
2010,08,16,05,51,15.00
2010,08,16,05,52,15.00
2010,08,16,05,53,14.90
2010,08,16,05,54,14.90
2010,08,16,05,55,14.90
2010,08,16,05,56,14.90
2010,08,16,05,57,14.90
2010,08,16,05,58,14.90
2010,08,16,05,59,14.90
2010,08,16,06,00,14.80
2010,08,16,06,01,14.80
2010,08,16,06,02,14.80
2010,08,16,06,03,14.80
2010,08,16,06,04,14.80
2010,08,16,06,05,14.90
2010,08,16,06,06,14.90
2010,08,16,06,07,14.90
2010,08,16,06,08,15.00
2010,08,16,06,09,15.00
2010,08,16,06,10,15.00
2010,08,16,06,11,15.00
2010,08,16,06,12,15.00
2010,08,16,06,13,15.00
2010,08,16,06,14,15.00
2010,08,16,06,15,15.00
2010,08,16,06,16,14.90
2010,08,16,06,17,14.90
2010,08,16,06,18,14.90
2010,08,16,06,19,14.90
2010,08,16,06,20,14.90
2010,08,16,06,21,14.80
2010,08,16,06,22,14.80
2010,08,16,06,23,14.80
2010,08,16,06,24,14.80
2010,08,16,06,25,14.80
2010,08,16,06,26,14.80
2010,08,16,06,27,14.80
2010,08,16,06,28,14.80
2010,08,16,06,29,14.70
2010,08,16,06,30,14.70
2010,08,16,06,31,14.70
2010,08,16,06,32,14.70
2010,08,16,06,33,14.70
2010,08,16,06,34,14.70
2010,08,16,06,35,14.60
2010,08,16,06,36,14.60
2010,08,16,06,37,14.60
2010,08,16,06,38,14.50
2010,08,16,06,39,14.50
2010,08,16,06,40,14.50
2010,08,16,06,41,14.40
2010,08,16,06,42,14.40
2010,08,16,06,43,14.40
2010,08,16,06,44,14.40
2010,08,16,06,45,14.40
2010,08,16,06,46,14.40
2010,08,16,06,47,14.40
2010,08,16,06,48,14.50
2010,08,16,06,49,14.50
2010,08,16,06,50,14.50
2010,08,16,06,51,14.50
2010,08,16,06,52,14.50
2010,08,16,06,53,14.50
2010,08,16,06,54,14.50
2010,08,16,06,55,14.60
2010,08,16,06,56,14.60
2010,08,16,06,57,14.60
2010,08,16,06,58,14.60
2010,08,16,06,59,14.60
2010,08,16,07,00,14.60
2010,08,16,07,01,14.60
2010,08,16,07,02,14.70
2010,08,16,07,03,14.70
2010,08,16,07,04,14.70
2010,08,16,07,05,14.80
2010,08,16,07,06,14.80
2010,08,16,07,07,14.80
2010,08,16,07,08,14.90
2010,08,16,07,09,15.00
2010,08,16,07,10,15.00
2010,08,16,07,11,15.00
2010,08,16,07,12,15.00
2010,08,16,07,13,15.00
2010,08,16,07,14,15.00
2010,08,16,07,15,15.00
2010,08,16,07,16,15.00
2010,08,16,07,17,15.00
2010,08,16,07,18,15.00
2010,08,16,07,19,15.00
2010,08,16,07,20,15.00
2010,08,16,07,21,15.00
2010,08,16,07,22,15.00
2010,08,16,07,23,15.00
2010,08,16,07,24,15.00
2010,08,16,07,25,15.00
2010,08,16,07,26,15.00
2010,08,16,07,27,15.00
2010,08,16,07,28,15.00
2010,08,16,07,29,15.10
2010,08,16,07,30,15.10
2010,08,16,07,31,15.20
2010,08,16,07,32,15.20
2010,08,16,07,33,15.30
2010,08,16,07,34,15.30
2010,08,16,07,35,15.30
2010,08,16,07,36,15.30
2010,08,16,07,37,15.40
2010,08,16,07,38,15.40
2010,08,16,07,39,15.40
2010,08,16,07,40,15.50
2010,08,16,07,41,15.50
2010,08,16,07,42,15.50
2010,08,16,07,43,15.60
2010,08,16,07,44,15.60
2010,08,16,07,45,15.70
2010,08,16,07,46,15.70
2010,08,16,07,47,15.80
2010,08,16,07,48,15.80
2010,08,16,07,49,15.90
2010,08,16,07,50,16.00
2010,08,16,07,51,16.10
2010,08,16,07,52,16.10
2010,08,16,07,53,16.20
2010,08,16,07,54,16.30
2010,08,16,07,55,16.30
2010,08,16,07,56,16.40
2010,08,16,07,57,16.50
2010,08,16,07,58,16.60
2010,08,16,07,59,16.60
2010,08,16,08,00,16.70
2010,08,16,08,01,16.70
2010,08,16,08,02,16.80
2010,08,16,08,03,16.80
2010,08,16,08,04,16.80
2010,08,16,08,05,16.90
2010,08,16,08,06,16.90
2010,08,16,08,07,17.00
2010,08,16,08,08,17.00
2010,08,16,08,09,17.10
2010,08,16,08,10,17.20
2010,08,16,08,11,17.20
2010,08,16,08,12,17.30
2010,08,16,08,13,17.40
2010,08,16,08,14,17.40
2010,08,16,08,15,17.50
2010,08,16,08,16,17.60
2010,08,16,08,17,17.70
2010,08,16,08,18,17.80
2010,08,16,08,19,17.90
2010,08,16,08,20,18.00
2010,08,16,08,21,18.00
2010,08,16,08,22,18.20
2010,08,16,08,23,18.20
2010,08,16,08,24,18.30
2010,08,16,08,25,18.40
2010,08,16,08,26,18.60
2010,08,16,08,27,18.70
2010,08,16,08,28,18.80
2010,08,16,08,29,19.00
2010,08,16,08,30,19.10
2010,08,16,08,31,19.10
2010,08,16,08,32,19.20
2010,08,16,08,33,19.30
2010,08,16,08,34,19.40
2010,08,16,08,35,19.50
2010,08,16,08,36,19.50
2010,08,16,08,37,19.60
2010,08,16,08,38,19.70
2010,08,16,08,39,19.80
2010,08,16,08,40,19.90
2010,08,16,08,41,19.90
2010,08,16,08,42,20.00
2010,08,16,08,43,20.10
2010,08,16,08,44,20.20
2010,08,16,08,45,20.20
2010,08,16,08,46,20.30
2010,08,16,08,47,20.30
2010,08,16,08,48,20.40
2010,08,16,08,49,20.40
2010,08,16,08,50,20.50
2010,08,16,08,51,20.60
2010,08,16,08,52,20.60
2010,08,16,08,53,20.60
2010,08,16,08,54,20.70
2010,08,16,08,55,20.70
2010,08,16,08,56,20.80
2010,08,16,08,57,20.80
2010,08,16,08,58,20.90
2010,08,16,08,59,20.90
2010,08,16,09,00,21.00
2010,08,16,09,01,21.10
2010,08,16,09,02,21.10
2010,08,16,09,03,21.20
2010,08,16,09,04,21.30
2010,08,16,09,05,21.40
2010,08,16,09,06,21.40
2010,08,16,09,07,21.50
2010,08,16,09,08,21.60
2010,08,16,09,09,21.70
2010,08,16,09,10,21.80
2010,08,16,09,11,21.80
2010,08,16,09,12,21.90
2010,08,16,09,13,22.00
2010,08,16,09,14,22.00
2010,08,16,09,15,22.10
2010,08,16,09,16,22.10
2010,08,16,09,17,22.20
2010,08,16,09,18,22.20
2010,08,16,09,19,22.30
2010,08,16,09,20,22.30
2010,08,16,09,21,22.40
2010,08,16,09,22,22.40
2010,08,16,09,23,22.50
2010,08,16,09,24,22.60
2010,08,16,09,25,22.70
2010,08,16,09,26,22.80
2010,08,16,09,27,22.90
2010,08,16,09,28,22.90
2010,08,16,09,29,23.00
2010,08,16,09,30,23.10
2010,08,16,09,31,23.20
2010,08,16,09,32,23.30
2010,08,16,09,33,23.40
2010,08,16,09,34,23.40
2010,08,16,09,35,23.50
2010,08,16,09,36,23.60
2010,08,16,09,37,23.70
2010,08,16,09,38,23.80
2010,08,16,09,39,23.80
2010,08,16,09,40,23.90
2010,08,16,09,41,24.00
2010,08,16,09,42,24.00
2010,08,16,09,43,24.10
2010,08,16,09,44,24.20
2010,08,16,09,45,24.40
2010,08,16,09,46,24.50
2010,08,16,09,47,24.60
2010,08,16,09,48,24.70
2010,08,16,09,49,24.80
2010,08,16,09,50,24.90
2010,08,16,09,51,24.90
2010,08,16,09,52,25.00
2010,08,16,09,53,25.00
2010,08,16,09,54,25.10
2010,08,16,09,55,25.20
2010,08,16,09,56,25.20
2010,08,16,09,57,25.30
2010,08,16,09,58,25.30
2010,08,16,09,59,25.40
2010,08,16,10,00,25.40
2010,08,16,10,01,25.40
2010,08,16,10,02,25.50
2010,08,16,10,03,25.50
2010,08,16,10,04,25.60
2010,08,16,10,05,25.60
2010,08,16,10,06,25.70
2010,08,16,10,07,25.80
2010,08,16,10,08,25.90
2010,08,16,10,09,25.90
2010,08,16,10,10,26.00
2010,08,16,10,11,26.00
2010,08,16,10,12,26.10
2010,08,16,10,13,26.10
2010,08,16,10,14,26.10
2010,08,16,10,15,26.10
2010,08,16,10,16,26.10
2010,08,16,10,17,26.20
2010,08,16,10,18,26.20
2010,08,16,10,19,26.20
2010,08,16,10,20,26.30
2010,08,16,10,21,26.40
2010,08,16,10,22,26.50
2010,08,16,10,23,26.70
2010,08,16,10,24,26.80
2010,08,16,10,25,26.80
2010,08,16,10,26,27.00
2010,08,16,10,27,27.10
2010,08,16,10,28,27.10
2010,08,16,10,29,27.20
2010,08,16,10,30,27.30
2010,08,16,10,31,27.30
2010,08,16,10,32,27.30
2010,08,16,10,33,27.40
2010,08,16,10,34,27.30
2010,08,16,10,35,27.30
2010,08,16,10,36,27.30
2010,08,16,10,37,27.20
2010,08,16,10,38,27.20
2010,08,16,10,39,27.20
2010,08,16,10,40,27.20
2010,08,16,10,41,27.20
2010,08,16,10,42,27.20
2010,08,16,10,43,27.20
2010,08,16,10,44,27.20
2010,08,16,10,45,27.30
2010,08,16,10,46,27.30
2010,08,16,10,47,27.30
2010,08,16,10,48,27.30
2010,08,16,10,49,27.30
2010,08,16,10,50,27.30
2010,08,16,10,51,27.40
2010,08,16,10,52,27.50
2010,08,16,10,53,27.50
2010,08,16,10,54,27.60
2010,08,16,10,55,27.70
2010,08,16,10,56,27.80
2010,08,16,10,57,27.90
2010,08,16,10,58,28.00
2010,08,16,10,59,28.00
2010,08,16,11,00,28.10
2010,08,16,11,01,28.10
2010,08,16,11,02,28.10
2010,08,16,11,03,28.00
2010,08,16,11,04,27.90
2010,08,16,11,05,27.90
2010,08,16,11,06,27.80
2010,08,16,11,07,27.70
2010,08,16,11,08,27.60
2010,08,16,11,09,27.60
2010,08,16,11,10,27.60
2010,08,16,11,11,27.60
2010,08,16,11,12,27.60
2010,08,16,11,13,27.70
2010,08,16,11,14,27.80
2010,08,16,11,15,27.80
2010,08,16,11,16,27.90
2010,08,16,11,17,27.90
2010,08,16,11,18,28.00
2010,08,16,11,19,28.10
2010,08,16,11,20,28.10
2010,08,16,11,21,28.10
2010,08,16,11,22,28.20
2010,08,16,11,23,28.20
2010,08,16,11,24,28.30
2010,08,16,11,25,28.30
2010,08,16,11,26,28.30
2010,08,16,11,27,28.30
2010,08,16,11,28,28.40
2010,08,16,11,29,28.40
2010,08,16,11,30,28.40
2010,08,16,11,31,28.40
2010,08,16,11,32,28.40
2010,08,16,11,33,28.40
2010,08,16,11,34,28.40
2010,08,16,11,35,28.40
2010,08,16,11,36,28.40
2010,08,16,11,37,28.40
2010,08,16,11,38,28.50
2010,08,16,11,39,28.50
2010,08,16,11,40,28.50
2010,08,16,11,41,28.50
2010,08,16,11,42,28.40
2010,08,16,11,43,28.40
2010,08,16,11,44,28.50
2010,08,16,11,45,28.60
2010,08,16,11,46,28.70
2010,08,16,11,47,28.70
2010,08,16,11,48,28.70
2010,08,16,11,49,28.80
2010,08,16,11,50,28.80
2010,08,16,11,51,28.80
2010,08,16,11,52,28.80
2010,08,16,11,53,28.80
2010,08,16,11,54,28.80
2010,08,16,11,55,28.90
2010,08,16,11,56,28.90
2010,08,16,11,57,29.00
2010,08,16,11,58,29.00
2010,08,16,11,59,29.00
2010,08,16,12,00,29.00
2010,08,16,12,01,29.10
2010,08,16,12,02,29.10
2010,08,16,12,03,29.10
2010,08,16,12,04,29.10
2010,08,16,12,05,29.10
2010,08,16,12,06,29.10
2010,08,16,12,07,29.10
2010,08,16,12,08,29.20
2010,08,16,12,09,29.30
2010,08,16,12,10,29.30
2010,08,16,12,11,29.40
2010,08,16,12,12,29.50
2010,08,16,12,13,29.60
2010,08,16,12,14,29.60
2010,08,16,12,15,29.60
2010,08,16,12,16,29.60
2010,08,16,12,17,29.60
2010,08,16,12,18,29.50
2010,08,16,12,19,29.50
2010,08,16,12,20,29.50
2010,08,16,12,21,29.60
2010,08,16,12,22,29.70
2010,08,16,12,23,29.80
2010,08,16,12,24,29.80
2010,08,16,12,25,29.80
2010,08,16,12,26,29.80
2010,08,16,12,27,29.70
2010,08,16,12,28,29.70
2010,08,16,12,29,29.70
2010,08,16,12,30,29.70
2010,08,16,12,31,29.80
2010,08,16,12,32,29.80
2010,08,16,12,33,29.90
2010,08,16,12,34,29.90
2010,08,16,12,35,30.00
2010,08,16,12,36,30.10
2010,08,16,12,37,30.20
2010,08,16,12,38,30.30
2010,08,16,12,39,30.30
2010,08,16,12,40,30.30
2010,08,16,12,41,30.30
2010,08,16,12,42,30.40
2010,08,16,12,43,30.40
2010,08,16,12,44,30.50
2010,08,16,12,45,30.60
2010,08,16,12,46,30.60
2010,08,16,12,47,30.60
2010,08,16,12,48,30.70
2010,08,16,12,49,30.80
2010,08,16,12,50,30.90
2010,08,16,12,51,31.00
2010,08,16,12,52,31.00
2010,08,16,12,53,30.90
2010,08,16,12,54,30.80
2010,08,16,12,55,30.70
2010,08,16,12,56,30.50
2010,08,16,12,57,30.40
2010,08,16,12,58,30.30
2010,08,16,12,59,30.30
2010,08,16,13,00,30.20
2010,08,16,13,01,30.10
2010,08,16,13,02,30.00
2010,08,16,13,03,29.90
2010,08,16,13,04,29.90
2010,08,16,13,05,29.90
2010,08,16,13,06,29.90
2010,08,16,13,07,30.00
2010,08,16,13,08,30.10
2010,08,16,13,09,30.10
2010,08,16,13,10,30.10
2010,08,16,13,11,30.10
2010,08,16,13,12,30.10
2010,08,16,13,13,30.10
2010,08,16,13,14,30.10
2010,08,16,13,15,30.10
2010,08,16,13,16,30.10
2010,08,16,13,17,30.10
2010,08,16,13,18,30.10
2010,08,16,13,19,30.10
2010,08,16,13,20,30.20
2010,08,16,13,21,30.30
2010,08,16,13,22,30.40
2010,08,16,13,23,30.40
2010,08,16,13,24,30.30
2010,08,16,13,25,30.30
2010,08,16,13,26,30.30
2010,08,16,13,27,30.30
2010,08,16,13,28,30.30
2010,08,16,13,29,30.20
2010,08,16,13,30,30.20
2010,08,16,13,31,30.20
2010,08,16,13,32,30.30
2010,08,16,13,33,30.30
2010,08,16,13,34,30.20
2010,08,16,13,35,30.00
2010,08,16,13,36,29.90
2010,08,16,13,37,29.90
2010,08,16,13,38,29.80
2010,08,16,13,39,29.90
2010,08,16,13,40,29.90
2010,08,16,13,41,30.00
2010,08,16,13,42,30.00
2010,08,16,13,43,30.00
2010,08,16,13,44,30.00
2010,08,16,13,45,30.10
2010,08,16,13,46,30.20
2010,08,16,13,47,30.20
2010,08,16,13,48,30.20
2010,08,16,13,49,30.20
2010,08,16,13,50,30.20
2010,08,16,13,51,30.20
2010,08,16,13,52,30.20
2010,08,16,13,53,30.20
2010,08,16,13,54,30.10
2010,08,16,13,55,30.00
2010,08,16,13,56,29.90
2010,08,16,13,57,29.90
2010,08,16,13,58,29.80
2010,08,16,13,59,29.80
2010,08,16,14,00,29.80
2010,08,16,14,01,29.80
2010,08,16,14,02,29.90
2010,08,16,14,03,29.90
2010,08,16,14,04,30.00
2010,08,16,14,05,30.00
2010,08,16,14,06,30.10
2010,08,16,14,07,30.10
2010,08,16,14,08,30.00
2010,08,16,14,09,30.00
2010,08,16,14,10,30.00
2010,08,16,14,11,30.00
2010,08,16,14,12,30.00
2010,08,16,14,13,30.00
2010,08,16,14,14,30.00
2010,08,16,14,15,29.90
2010,08,16,14,16,29.80
2010,08,16,14,17,29.80
2010,08,16,14,18,29.80
2010,08,16,14,19,29.80
2010,08,16,14,20,29.70
2010,08,16,14,21,29.70
2010,08,16,14,22,29.70
2010,08,16,14,23,29.80
2010,08,16,14,24,29.80
2010,08,16,14,25,30.00
2010,08,16,14,26,30.10
2010,08,16,14,27,30.10
2010,08,16,14,28,30.10
2010,08,16,14,29,30.00
2010,08,16,14,30,29.90
2010,08,16,14,31,29.80
2010,08,16,14,32,29.80
2010,08,16,14,33,29.70
2010,08,16,14,34,29.70
2010,08,16,14,35,29.70
2010,08,16,14,36,29.70
2010,08,16,14,37,29.70
2010,08,16,14,38,29.70
2010,08,16,14,39,29.70
2010,08,16,14,40,29.80
2010,08,16,14,41,29.80
2010,08,16,14,42,29.90
2010,08,16,14,43,29.90
2010,08,16,14,44,29.90
2010,08,16,14,45,30.00
2010,08,16,14,46,30.10
2010,08,16,14,47,30.10
2010,08,16,14,48,30.10
2010,08,16,14,49,30.10
2010,08,16,14,50,30.10
2010,08,16,14,51,30.20
2010,08,16,14,52,30.10
2010,08,16,14,53,30.10
2010,08,16,14,54,30.10
2010,08,16,14,55,30.10
2010,08,16,14,56,30.00
2010,08,16,14,57,30.00
2010,08,16,14,58,30.10
2010,08,16,14,59,30.20
2010,08,16,15,00,30.20
2010,08,16,15,01,30.20
2010,08,16,15,02,30.10
2010,08,16,15,03,30.10
2010,08,16,15,04,30.10
2010,08,16,15,05,30.20
2010,08,16,15,06,30.20
2010,08,16,15,07,30.30
2010,08,16,15,08,30.30
2010,08,16,15,09,30.30
2010,08,16,15,10,30.30
2010,08,16,15,11,30.20
2010,08,16,15,12,30.20
2010,08,16,15,13,30.40
2010,08,16,15,14,30.50
2010,08,16,15,15,30.60
2010,08,16,15,16,30.60
2010,08,16,15,17,30.60
2010,08,16,15,18,30.60
2010,08,16,15,19,30.60
2010,08,16,15,20,30.70
2010,08,16,15,21,30.60
2010,08,16,15,22,30.60
2010,08,16,15,23,30.60
2010,08,16,15,24,30.50
2010,08,16,15,25,30.50
2010,08,16,15,26,30.60
2010,08,16,15,27,30.70
2010,08,16,15,28,30.80
2010,08,16,15,29,30.90
2010,08,16,15,30,30.80
2010,08,16,15,31,30.80
2010,08,16,15,32,30.90
2010,08,16,15,33,30.90
2010,08,16,15,34,30.90
2010,08,16,15,35,30.90
2010,08,16,15,36,30.90
2010,08,16,15,37,30.90
2010,08,16,15,38,30.70
2010,08,16,15,39,30.60
2010,08,16,15,40,30.60
2010,08,16,15,41,30.50
2010,08,16,15,42,30.50
2010,08,16,15,43,30.50
2010,08,16,15,44,30.40
2010,08,16,15,45,30.30
2010,08,16,15,46,30.30
2010,08,16,15,47,30.30
2010,08,16,15,48,30.20
2010,08,16,15,49,30.10
2010,08,16,15,50,30.10
2010,08,16,15,51,30.10
2010,08,16,15,52,30.20
2010,08,16,15,53,30.40
2010,08,16,15,54,30.60
2010,08,16,15,55,30.70
2010,08,16,15,56,30.70
2010,08,16,15,57,30.70
2010,08,16,15,58,30.70
2010,08,16,15,59,30.70
2010,08,16,16,00,30.70
2010,08,16,16,01,30.70
2010,08,16,16,02,30.70
2010,08,16,16,03,30.70
2010,08,16,16,04,30.70
2010,08,16,16,05,30.60
2010,08,16,16,06,30.60
2010,08,16,16,07,30.50
2010,08,16,16,08,30.50
2010,08,16,16,09,30.40
2010,08,16,16,10,30.30
2010,08,16,16,11,30.40
2010,08,16,16,12,30.40
2010,08,16,16,13,30.40
2010,08,16,16,14,30.50
2010,08,16,16,15,30.60
2010,08,16,16,16,30.60
2010,08,16,16,17,30.70
2010,08,16,16,18,30.80
2010,08,16,16,19,30.70
2010,08,16,16,20,30.70
2010,08,16,16,21,30.70
2010,08,16,16,22,30.60
2010,08,16,16,23,30.70
2010,08,16,16,24,30.80
2010,08,16,16,25,30.80
2010,08,16,16,26,30.80
2010,08,16,16,27,30.80
2010,08,16,16,28,30.80
2010,08,16,16,29,30.80
2010,08,16,16,30,30.70
2010,08,16,16,31,30.70
2010,08,16,16,32,30.70
2010,08,16,16,33,30.70
2010,08,16,16,34,30.70
2010,08,16,16,35,30.70
2010,08,16,16,36,30.70
2010,08,16,16,37,30.70
2010,08,16,16,38,30.70
2010,08,16,16,39,30.70
2010,08,16,16,40,30.80
2010,08,16,16,41,30.80
2010,08,16,16,42,30.70
2010,08,16,16,43,30.70
2010,08,16,16,44,30.70
2010,08,16,16,45,30.70
2010,08,16,16,46,30.60
2010,08,16,16,47,30.60
2010,08,16,16,48,30.60
2010,08,16,16,49,30.60
2010,08,16,16,50,30.50
2010,08,16,16,51,30.50
2010,08,16,16,52,30.50
2010,08,16,16,53,30.50
2010,08,16,16,54,30.50
2010,08,16,16,55,30.50
2010,08,16,16,56,30.60
2010,08,16,16,57,30.60
2010,08,16,16,58,30.60
2010,08,16,16,59,30.60
2010,08,16,17,00,30.50
2010,08,16,17,01,30.50
2010,08,16,17,02,30.50
2010,08,16,17,03,30.50
2010,08,16,17,04,30.50
2010,08,16,17,05,30.60
2010,08,16,17,06,30.50
2010,08,16,17,07,30.40
2010,08,16,17,08,30.40
2010,08,16,17,09,30.40
2010,08,16,17,10,30.40
2010,08,16,17,11,30.50
2010,08,16,17,12,30.50
2010,08,16,17,13,30.50
2010,08,16,17,14,30.40
2010,08,16,17,15,30.40
2010,08,16,17,16,30.40
2010,08,16,17,17,30.40
2010,08,16,17,18,30.40
2010,08,16,17,19,30.40